RH
100 100 100 96 79 73 74 92 97 96 94 92 90 85 88 95 97 96 92 91 93 100 100 96 89 92 100 100 100 100 100 100 99 93 82 83 85 88 81 81 75 73 62
100 100 100 100 91 81 84 82 90 98 100 100 100 100 99 100 100 100 100 100 100 100 100 98 100 100 100 100 100 100 100 99 94 87 79 80 86 84 84 71 66 62 57
100 100 100 100 100 100 100 100 99 99 100 99 100 100 100 100 100 100 100 100 100 100 100 100 100 100 100 100 100 100 100 96 94 82 82 74 85 83 88 79 65 58 50
98 100 100 100 100 100 100 100 100 100 100 100 99 99 100 100 100 100 100 100 100 100 100 100 100 100 100 100 100 97 89 87 85 82 85 82 68 70 76 68 58 50 45
66 79 95 100 100 100 100 100 100 100 100 100 100 100 100 100 100 100 100 91 88 86 84 88 83 84 76 78 81 87 84 86 83 82 88 81 78 74 63 57 43 35 20
82 76 81 92 97 100 100 100 100 100 100 100 100 100 100 100 100 100 100 100 90 84 84 83 75 78 84 87 87 86 83 81 84 95 91 91 77 66 56 40 31 15 18
71 79 85 89 95 93 97 100 100 100 100 100 100 100 100 100 100 100 100 100 100 100 96 92 94 99 97 98 90 84 78 97 95 98 90 80 67 54 40 29 16 15 18
94 92 91 97 100 100 95 95 96 100 100 100 100 100 100 100 100 100 100 97 88 96 99 100 100 99 98 89 84 84 92 99 96 90 75 68 55 38 30 20 20 21 28
100 92 90 99 100 100 100 100 100 98 98 99 100 100 100 100 100 100 100 100 100 100 100 100 99 96 97 94 96 100 100 94 90 80 63 47 34 31 28 27 28 31 35
68 89 94 94 97 99 100 100 100 100 100 100 100 99 100 100 100 100 100 100 99 99 97 95 99 99 98 100 100 100 96 91 72 54 42 35 31 29 34 36 38 41 37
65 54 53 80 100 100 96 96 100 100 100 100 100 100 100 100 100 100 100 100 97 99 100 100 100 100 100 100 100 98 87 61 44 35 40 40 34 38 38 40 46 46 38
74 75 71 68 63 69 86 97 97 96 96 100 100 100 100 100 100 100 100 100 100 100 100 100 100 100 100 100 96 89 50 30 33 38 51 35 41 38 42 46 51 46 41
68 59 61 74 77 73 69 73 76 80 87 86 88 94 100 100 100 100 100 100 100 100 100 100 100 100 98 88 82 48 24 33 55 74 46 53 40 40 47 53 56 47 43
95 88 74 66 65 69 59 58 67 65 68 69 68 75 78 94 100 100 100 100 100 100 100 100 95 87 88 76 47 30 46 70 78 54 41 44 39 47 50 58 57 48 43
100 97 99 90 73 83 76 80 69 67 56 52 58 56 69 92 100 96 97 94 100 98 93 92 94 84 57 31 47 60 72 66 61 46 46 42 51 53 61 65 60 53 48
19 19 19 48 93 100 100 99 89 98 95 57 66 85 100 100 83 76 90 91 67 73 93 88 57 30 46 65 74 81 71 65 49 46 45 56 55 56 66 68 66 59 54
17 17 17 18 19 18 17 16 18 17 19 34 57 78 86 85 86 90 46 51 69 66 46 42 48 74 74 80 70 60 54 51 46 43 53 58 57 62 72 75 73 70 69
18 18 18 18 18 16 16 16 16 16 18 20 24 29 36 51 66 50 65 70 46 47 67 100 82 88 81 62 56 50 51 50 50 55 62 57 66 73 78 83 83 80 81
19 21 22 20 18 18 18 18 20 26 29 34 34 32 31 47 57 47 63 73 86 96 92 83 89 65 60 54 51 50 49 50 56 61 64 62 72 77 90 92 92 92 90
21 22 21 20 21 23 24 26 35 32 50 50 53 49 51 58 85 89 100 100 93 85 96 84 68 57 54 52 50 45 45 51 58 64 68 72 82 85 95 99 97 98 100
23 22 23 25 26 28 29 30 36 56 70 71 78 86 97 92 97 100 100 99 96 97 78 66 62 57 53 47 46 48 50 56 63 69 71 78 84 93 100 100 100 100 99
33 35 30 24 25 27 28 30 41 59 57 80 100 94 100 100 100 100 90 100 100 82 69 66 61 52 46 46 50 52 53 56 66 75 79 81 93 100 100 96 95 99 98
46 50 53 53 53 55 54 50 54 57 68 86 100 100 100 100 100 100 100 98 90 74 68 58 53 54 56 55 52 53 58 62 68 75 81 88 94 97 99 99 92 92 94
72 77 71 66 70 80 83 82 79 84 95 100 100 100 100 100 100 100 95 93 87 78 67 56 59 68 60 61 60 64 67 70 74 81 88 92 93 94 90 88 93 93 83
80 89 92 87 84 83 88 91 92 100 100 100 100 100 97 100 100 99 97 97 90 78 67 64 74 77 69 71 73 77 83 88 92 91 88 89 91 86 82 83 82 82 88
89 92 95 97 94 90 93 97 100 100 100 100 100 100 100 100 100 100 100 99 90 86 67 74 83 81 74 73 75 78 80 82 84 83 81 79 80 84 89 88 86 97 97
Wind_Speed
86 83 82 81 81 81 80 79 78 78 77 76 76 75 73 73 73 73 73 73 73 74 75 76 75 76 76 76 77 76 78 81 85 87 91 93 95 98 101 104 110 113 116
86 84 82 81 83 83 83 82 81 79 77 76 76 76 77 76 74 74 75 76 77 77 76 75 75 74 73 75 78 80 82 86 91 93 95 96 98 102 106 112 115 118 121
88 86 84 82 82 82 82 82 81 81 80 79 78 78 77 76 77 78 78 79 78 78 78 77 76 76 76 79 82 85 89 92 95 100 103 105 104 107 111 116 121 123 119
93 90 89 87 85 83 82 81 79 79 79 78 78 78 78 79 79 78 79 79 79 79 77 78 78 76 79 82 87 92 96 99 101 104 107 110 113 113 114 120 121 116 110
99 96 91 90 89 88 86 84 81 79 78 78 78 78 79 79 80 80 82 84 84 85 85 84 86 86 87 89 92 96 99 101 103 107 109 113 117 120 124 125 118 115 108
103 101 97 94 93 92 90 88 85 83 82 81 80 80 80 80 79 80 82 83 85 86 86 88 91 92 92 93 96 98 100 103 106 107 110 114 119 123 125 123 117 106 100
105 103 102 99 95 94 92 90 88 86 85 85 85 85 83 83 83 82 82 83 83 85 88 89 91 92 95 97 99 101 104 104 107 111 117 121 123 124 117 114 105 100 94
106 105 103 101 99 97 96 94 92 90 88 87 86 85 85 85 85 85 86 87 89 88 89 90 93 96 99 103 105 106 106 108 112 119 120 123 119 111 107 103 99 92 86
109 110 108 106 104 102 100 98 96 95 94 93 92 90 89 89 89 88 88 89 90 92 93 95 98 100 102 104 106 107 110 115 119 121 121 113 105 104 99 94 90 86 79
107 109 108 108 108 107 105 103 101 100 99 98 97 96 95 95 94 95 95 95 96 98 99 100 100 101 103 105 108 110 115 118 120 117 105 101 100 96 89 84 80 76 76
96 100 102 102 105 108 109 108 106 104 103 102 101 100 99 98 98 98 98 99 100 99 99 100 101 103 105 108 110 114 116 116 107 98 96 96 94 88 80 76 71 71 72
92 92 89 91 95 100 105 108 108 109 109 107 106 105 104 102 100 100 99 99 99 101 101 103 104 105 108 111 114 113 110 102 94 92 91 90 82 78 74 68 66 66 68
95 91 86 86 87 89 93 94 97 99 100 103 105 107 108 108 106 106 105 105 105 105 105 106 108 110 111 112 110 104 100 91 89 89 90 86 75 71 66 62 64 63 62
104 98 95 92 89 90 89 88 90 94 96 98 97 98 99 102 104 105 106 107 105 106 106 108 109 110 108 106 101 94 89 87 89 90 86 75 69 66 62 59 60 59 58
117 112 112 112 106 100 99 101 102 101 101 102 101 98 98 98 97 99 101 102 104 106 107 105 104 103 99 94 86 84 86 87 89 79 72 68 66 61 56 59 59 58 57
90 92 93 95 106 113 113 112 109 108 109 106 103 102 104 106 100 97 103 108 103 100 98 98 93 90 82 80 82 83 86 86 75 70 66 63 60 56 57 59 59 58 57
79 81 83 86 88 91 93 93 93 91 89 89 92 94 97 99 98 99 94 91 90 88 87 83 76 74 77 79 82 82 79 70 65 64 61 59 55 54 56 58 58 57 58
71 73 77 80 82 82 82 81 81 81 81 81 82 82 82 80 83 84 79 80 77 72 67 68 72 74 79 79 78 71 65 60 60 58 56 53 54 54 55 57 57 58 58
66 68 69 72 71 70 71 72 71 73 73 73 73 73 72 71 71 66 61 60 60 62 67 70 74 77 76 71 65 59 58 57 57 55 55 55 55 55 57 58 58 58 59
61 63 64 65 64 65 66 67 68 68 66 69 68 65 59 54 52 54 54 59 62 66 67 74 74 67 61 57 56 57 56 56 55 55 55 56 57 58 58 59 59 59 60
56 58 61 63 63 62 64 65 65 63 59 60 61 56 51 55 55 56 59 61 65 69 71 63 57 55 55 54 54 54 54 54 54 55 57 58 59 59 59 60 59 60 61
49 50 51 54 56 58 59 60 61 62 60 60 58 57 56 54 55 58 64 63 66 65 59 52 53 52 52 51 52 52 52 52 53 55 56 58 58 60 61 61 61 61 62
46 46 48 48 47 47 48 49 50 51 48 47 57 58 54 58 63 61 57 60 56 53 50 51 48 48 49 50 49 49 50 51 53 55 57 59 59 61 62 62 62 62 62
44 41 42 41 41 44 45 44 42 39 39 42 46 50 53 53 53 56 56 52 49 49 49 46 43 46 47 47 47 48 48 49 50 52 53 55 57 58 59 59 59 60 62
45 45 43 42 40 39 39 40 40 40 42 44 46 50 51 51 51 51 50 47 48 48 48 46 44 46 46 45 44 45 45 45 46 49 51 53 54 55 55 56 59 60 62
45 48 48 45 42 42 42 42 43 44 47 50 52 52 52 51 50 48 47 47 49 49 48 44 42 41 41 40 39 40 41 43 44 46 49 51 52 54 55 59 62 66 69
Wind_Direction
233 233 233 232 235 238 240 242 245 248 250 254 257 260 262 264 267 271 274 277 279 281 283 285 288 290 292 293 292 291 292 294 296 298 300 302 303 306 306 307 307 308 310
231 236 237 239 239 239 241 243 245 248 251 254 257 259 263 266 269 271 273 274 276 279 281 285 288 289 288 289 289 291 292 294 296 298 298 301 304 305 306 306 307 309 311
231 232 236 240 241 242 244 246 249 251 252 254 255 258 262 265 267 270 273 276 279 281 283 285 285 286 287 287 289 291 294 295 297 299 301 303 305 304 306 308 309 310 310
229 233 233 236 240 243 245 246 249 252 254 257 259 262 263 264 266 268 270 271 273 277 279 280 283 282 283 286 289 292 294 296 298 301 303 304 304 306 306 308 309 308 306
230 232 235 237 238 241 244 246 248 250 253 256 257 260 263 265 268 271 272 275 277 278 281 282 282 283 285 286 288 290 293 296 300 301 302 304 304 307 307 308 308 307 305
232 233 235 237 239 240 243 246 249 251 252 255 257 259 262 265 268 271 273 276 278 279 281 282 283 285 287 289 290 292 295 298 300 301 302 304 306 307 307 308 306 305 305
235 235 237 238 241 242 244 246 249 252 255 257 258 261 263 265 268 270 272 275 278 280 282 285 287 289 289 291 293 295 297 300 300 302 303 305 305 306 307 305 306 306 306
239 239 239 240 241 243 245 247 249 251 253 256 259 262 264 266 269 271 273 275 279 281 283 285 285 288 290 292 295 297 298 301 302 303 305 305 306 306 306 307 307 308 308
239 240 242 243 244 245 247 248 250 252 254 256 259 261 263 266 268 270 272 274 276 279 281 283 285 288 290 293 295 297 299 301 302 304 304 304 304 305 307 307 308 309 310
242 241 242 244 246 247 249 250 251 253 255 257 259 261 264 266 269 271 273 274 277 279 281 284 286 288 289 291 294 297 299 300 302 302 302 303 304 306 306 307 308 309 311
244 245 246 246 247 249 250 251 252 254 255 257 260 262 264 268 270 272 274 276 278 281 282 283 285 287 290 292 294 297 299 301 301 300 301 303 306 305 305 306 306 309 312
245 245 247 249 249 250 251 251 253 255 257 259 261 263 265 267 269 271 273 274 277 278 280 283 285 288 289 293 295 297 299 299 298 299 301 304 303 302 304 304 305 308 311
252 247 251 250 251 251 252 254 257 259 260 262 263 264 265 266 268 270 272 274 277 279 281 284 285 288 291 293 295 297 297 296 297 299 300 303 300 301 301 301 304 307 311
254 255 257 257 255 257 255 254 257 258 259 261 263 266 268 268 269 271 273 275 277 279 281 284 286 289 292 293 294 294 294 295 298 299 300 299 298 300 300 301 302 306 310
251 254 256 258 257 257 260 262 262 263 262 263 265 267 267 269 271 273 275 277 279 280 283 286 287 289 291 291 292 292 292 296 298 297 297 297 297 299 298 300 302 305 307
247 249 251 251 253 255 258 260 261 262 264 266 266 266 269 270 272 275 277 281 280 282 284 285 287 288 289 289 289 291 294 295 293 293 296 296 296 295 296 299 301 303 306
245 247 249 250 251 252 254 255 257 258 261 263 264 265 268 270 273 275 278 278 280 281 282 284 286 286 288 289 291 293 293 290 291 292 293 294 293 294 297 299 301 303 305
243 246 246 247 249 251 253 254 255 257 260 262 264 266 269 270 271 275 274 276 279 280 282 283 285 286 288 291 292 289 286 287 288 290 291 290 290 293 297 300 302 303 304
240 242 245 248 251 253 254 256 258 258 261 263 265 267 268 271 272 273 274 276 279 282 283 284 285 288 289 289 286 286 285 286 287 287 288 289 290 293 297 299 301 302 303
242 244 246 247 248 251 253 255 257 260 262 264 264 266 269 270 273 274 274 277 280 282 282 285 288 289 288 286 286 286 284 284 285 286 287 289 290 293 297 299 301 302 302
245 243 243 246 249 250 253 254 256 258 260 260 266 267 263 270 270 272 275 280 281 281 284 289 290 288 286 284 286 287 284 285 286 286 286 288 292 295 297 298 299 299 299
251 250 250 248 247 248 250 253 254 255 258 257 258 263 267 269 272 274 282 279 281 284 287 289 290 288 287 286 289 288 287 287 287 286 286 288 291 292 294 296 298 299 300
254 253 252 253 251 251 252 253 253 254 254 256 256 258 260 265 272 276 276 280 281 286 290 293 289 288 290 290 292 292 289 287 285 285 286 288 290 292 295 296 296 298 300
250 251 252 253 250 249 249 250 250 249 249 250 255 258 261 265 268 272 276 278 283 289 294 295 293 293 294 295 293 292 293 290 290 289 290 291 292 292 294 298 299 299 300
247 248 251 254 254 251 252 249 249 249 249 252 254 257 265 268 270 272 274 277 283 289 295 297 297 295 296 296 296 294 294 295 295 295 295 294 295 298 300 300 300 301 302
246 248 249 249 252 253 254 252 249 249 248 250 257 259 262 266 268 269 272 276 285 291 295 295 297 297 300 301 302 302 301 299 298 297 297 299 302 303 301 300 301 302 301